This is the latest recevied weather packets stored in our database for station/object IW2DGQ-3. If no packets are shown the sender has not sent any weather packets the latest 10 day(s).
| Time | Temp. | Humidity | Pressure | Rain* | Wind** | Luminosity | Snow |
|---|---|---|---|---|---|---|---|
| 1787720385 | 20.56° C | 90% | 1017.3 hPa | - | - | - | - |
| 1787719184 | 20° C | 90% | 1016.9 hPa | - | - | - | - |
| 1787717984 | 20° C | 90% | 1016.7 hPa | - | - | - | - |
| 1787716784 | 20° C | 90% | 1016.6 hPa | - | - | - | - |
| 1787715583 | 20° C | 89% | 1016.5 hPa | - | - | - | - |
| 1787714383 | 20.56° C | 89% | 1016.5 hPa | - | - | - | - |
| 1787713183 | 20.56° C | 89% | 1016.4 hPa | - | - | - | - |
| 1787711982 | 20.56° C | 88% | 1016.3 hPa | - | - | - | - |
| 1787710782 | 20.56° C | 88% | 1016 hPa | - | - | - | - |
| 1787709582 | 20.56° C | 87% | 1016.1 hPa | - | - | - | - |
| 1787708381 | 20.56° C | 87% | 1016 hPa | - | - | - | - |
| 1787707181 | 20.56° C | 86% | 1015.8 hPa | - | - | - | - |
| 1787705981 | 21.11° C | 86% | 1015.8 hPa | - | - | - | - |
| 1787704781 | 21.11° C | 85% | 1015.6 hPa | - | - | - | - |
| 1787703580 | 21.11° C | 85% | 1015.6 hPa | - | - | - | - |
| 1787702380 | 21.11° C | 84% | 1015.4 hPa | - | - | - | - |
| 1787701180 | 21.67° C | 84% | 1015.3 hPa | - | - | - | - |
| 1787699979 | 21.67° C | 83% | 1015.1 hPa | - | - | - | - |
| 1787698779 | 21.67° C | 83% | 1015.1 hPa | - | - | - | - |
| 1787697578 | 22.22° C | 82% | 1015 hPa | - | - | - | - |
| 1787696378 | 22.22° C | 82% | 1014.9 hPa | - | - | - | - |
| 1787695180 | 22.22° C | 81% | 1014.9 hPa | - | - | - | - |
| 1787693978 | 22.22° C | 81% | 1014.6 hPa | - | - | - | - |
| 1787692777 | 22.22° C | 80% | 1014.5 hPa | - | - | - | - |
| 1787691577 | 22.78° C | 79% | 1014.2 hPa | - | - | - | - |
* Rain since midnight (hover to see other rain measurements)
** Current wind speed in m/s (hover to see current wind gust speed)